Location: *
(51.1248°S, 108.4023°W)
Time: 05:08:52
(UTC+00:00)

ATLAS CENTAUR R/B - Pass Details

Date: 15 June 2021
Orbit: 472 x 671 km, 64.6° (Epoch: 13 June)

Event Time Altitude Azimuth Distance (km) Brightness Sun altitude
Exits shadow 12:42:53 17° 180° (S) 1,575 3.5 -22.8°
Drops below altitude 10° 12:44:54 10° 154° (SSE) 1,970 4.3 -22.4°
Sets 12:47:42 0° 135° (SE) 2,832 5.4 -22.0°
